Retour au catalogue

STARLINK-5509

ActifCommunicationsVLEO
NORAD 57263·PAYLOAD·🇺🇸 United States

Lancé Jul 7, 2023 depuis Vandenberg Space Force Base

Loading…

Prochains Passages (prochaines 24 heures)

TLE

FraisSource: CelesTrak SupGP

Époque: Sep 14, 2026, 20:43 UTC

1 57263C 23094AX  26257.86368056  .00061896  00000+0  22420-2 0  2573
2 57263  43.0011  42.2328 0001397 275.9596 268.1469 15.27546680    19

Suivez STARLINK-5509 en temps réel avec AllMySat

Download on the App Store